Regional Weather Roundup
Issued by NWS

Home | Current Version | Previous Version | Text Only | Print | Product List | Glossary Off
Versions: 1 2 3 4 5 6 7 8 9 10 11 12 13 14 15 16 17 18 19 20 21 22 23 24 25 26 27 28 29 30 31 32 33 34 35 36 37 38 39 40 41 42 43 44 45 46 47 48 49 50

000
ASUS43 KFSD 031602
RWRSD

WEATHER ROUNDUP FOR SOUTH DAKOTA
NATIONAL WEATHER SERVICE SIOUX FALLS SD
1100 AM CDT MON AUG 03 2015

NOTE: "FAIR" INDICATES FEW OR NO CLOUDS BELOW 12,000 FEET WITH NO
SIGNIFICANT WEATHER AND/OR OBSTRUCTIONS TO VISIBILITY.


SDZ001>005-009-010-012>017-031700-
NORTHWEST AND NORTH CENTRAL SOUTH DAKOTA

CITY           SKY/WX    TMP DP  RH WIND       PRES   REMARKS
BUFFALO          N/A     74  53  48 SE7       30.00S
FAITH            N/A     75  49  39 SE8       30.04F
MOBRIDGE       SUNNY     75  57  53 N7        30.00F
$$

SDZ012>016-024>037-041>051-057-063-072>074-031700-
SOUTHWEST AND SOUTH CENTRAL SOUTH DAKOTA

CITY           SKY/WX    TMP DP  RH WIND       PRES   REMARKS
RAPID CTY ARPT SUNNY     74  58  57 SE6       30.05F
PIERRE         SUNNY     75  55  49 S7        30.01S
CUSTER         SUNNY     69  50  50 E10       30.16S
ELLSWORTH AFB  SUNNY     75  58  57 SE7       30.05S
PHILIP         SUNNY     75  61  61 SE9       30.02F
PINE RIDGE     SUNNY     78  60  53 SE17      30.04S
WINNER         FAIR      78  58  49 E5        30.03R
$$

SDZ004>011-016>023-039-040-031700-
NORTHEAST SOUTH DAKOTA

CITY           SKY/WX    TMP DP  RH WIND       PRES   REMARKS
ABERDEEN       SUNNY     76  49  38 NE5       30.00S
WATERTOWN      SUNNY     73  53  49 W7        30.00S
BROOKINGS      SUNNY     72  55  56 NW7       30.02S
SISSETON         N/A     74  50  42 N12       29.97R
$$

SDZ017-020-022-023-036>040-048>070-031700-
SOUTHEAST SOUTH DAKOTA

CITY           SKY/WX    TMP DP  RH WIND       PRES   REMARKS
SIOUX FALLS    MOSUNNY   74  55  51 SW5       30.00S
HURON          SUNNY     75  61  61 CALM      29.99F
CHAMBERLAIN    SUNNY     73  60  64 S3        30.02S
MITCHELL       SUNNY     75  60  59 SW3       30.00F
YANKTON        SUNNY     73  63  68 CALM      29.99R
$$

ABBREVIATIONS USED IN REMARKS
   TC - TEMPERATURE IN CELSIUS
  WCI - WIND CHILL INDEX
   HX - HEAT INDEX
  VSB - VISIBILITY



USA.gov is the U.S. government's official web portal to all federal, state and local government web resources and services.